Location: *
(45.8667°N, 5.1000°E)
Time: 00:10:00
(UTC+00:00)

Daily predictions for brighter satellites

Satellite Brightness Start Highest point End
(mag) Time Altitude Azimuth Time Altitude Azimuth Time Altitude Azimuth
SL-16 R/B 4.1 00:21:58 29° NNE 00:21:58 29° NNE 00:25:46 10° N
Cosmos 2082 Rocket 4.5 00:14:58 10° NNW 00:16:43 19° N 00:16:43 19° N
USA 267 4.3 00:44:41 10° NE 00:50:26 38° N 00:50:26 38° N
Resurs 1-4 Rocket 4.2 00:52:00 10° NNE 00:54:07 23° NE 00:54:07 23° NE
Cosmos 2278 Rocket 4.0 01:05:11 28° NNE 01:05:11 28° NNE 01:07:49 10° NNE
Lacrosse 5 4.1 01:20:30 22° NNE 01:20:30 22° NNE 01:23:35 10° NE
Cosmos 1943 Rocket 4.2 01:26:29 20° E 01:26:29 20° E 01:29:40 10° NE
CZ-2D R/B 3.6 01:27:24 10° NNE 01:30:10 32° NNE 01:30:10 32° NNE
ARIANE 5 R/B 4.4 01:28:47 10° NE 01:32:01 26° ENE 01:32:01 26° ENE
ATLAS 5 CENTAUR R/B 4.0 01:37:32 22° N 01:37:32 22° N 01:39:41 10° NNE
Cosmos 2279 Rocket 4.3 01:48:42 10° N 01:53:55 62° NNE 01:53:55 62° NNE
BREEZE-M DEB (TANK) 3.8 02:00:03 69° ESE 02:00:03 69° ESE 02:12:00 10° ENE
NOSS 3-2 (A) 3.7 02:00:54 60° E 02:00:54 60° E 02:06:33 10° NE
NOSS 3-2 (C) 4.0 02:03:49 47° ESE 02:03:49 47° ESE 02:09:40 10° NE
SL-16 R/B 4.0 02:07:03 25° NW 02:07:03 25° NW 02:09:39 10° NNW
ATLAS 3B R/B 3.5 02:04:50 37° SE 02:05:31 38° ESE 02:11:32 10° NE
Cosmos 2297 4.4 02:11:47 47° N 02:11:47 47° N 02:16:08 10° NNE
Cosmos 841 Rocket 4.3 02:16:29 45° N 02:16:29 45° N 02:20:10 10° NNE
BREEZE-M DEB (TANK) 4.0 02:20:27 74° NW 02:21:00 83° NNE 02:35:42 10° ESE
Cosmos 2369 Rocket 2.7 02:22:09 52° ESE 02:22:26 53° ESE 02:27:57 10° NE
ADEOS II 2.3 02:18:38 10° NNE 02:23:23 69° NE 02:23:23 69° NE
Nadezhda 4 Rocket 4.2 02:27:46 50° SSE 02:29:12 65° E 02:35:15 10° NNE
BREEZE-M DEB (TANK) 4.4 02:26:05 47° SW 02:29:41 70° SSE 02:34:47 10° E
Atlas Centaur 2 4.3 02:32:45 19° SSE 02:32:45 19° SSE 02:36:07 10° SE
Spot 4 Rocket 4.1 02:25:56 10° NNE 02:30:52 73° ENE 02:30:52 73° ENE
Resurs 1-4 Rocket 3.5 02:32:06 10° N 02:35:11 26° NW 02:35:11 26° NW
Meteor 1-20 Rocket 4.1 02:33:50 10° NNW 02:38:53 75° NW 02:38:53 75° NW
IRIDIUM 104 4.3 02:40:01 72° NNW 02:40:01 72° NNW 02:44:46 10° N
IRS-1D 4.4 02:35:25 10° N 02:39:29 40° NW 02:39:29 40° NW
SL-4 R/B 3.5 02:46:33 29° ENE 02:46:33 29° ENE 02:48:37 10° E
CENTAUR R/B 2.7 02:45:29 51° S 02:46:55 66° ESE 02:53:48 10° NE
Cosmos 2278 Rocket 4.2 02:47:02 15° NW 02:47:22 15° NW 02:50:33 10° N
Unknown 4.4 02:49:18 47° E 02:49:18 47° E 02:52:35 10° ENE
IRIDIUM 114 4.4 02:49:11 63° NW 02:49:11 63° NW 02:53:54 10° N
Meteor 1-28 Rocket 4.3 02:50:55 41° NNE 02:50:55 41° NNE 02:53:36 10° N
Unknown 4.3 02:50:58 49° E 02:50:58 49° E 02:54:19 10° ENE
Unknown 4.3 02:51:31 50° E 02:51:31 50° E 02:54:53 10° ENE
Unknown 4.2 02:54:08 54° E 02:54:08 54° E 02:57:37 10° ENE
Unknown 4.1 02:55:50 58° E 02:55:50 58° E 02:59:24 10° ENE
Unknown 4.0 02:56:49 58° ESE 02:56:49 58° ESE 03:00:25 10° ENE
IRIDIUM 103 4.5 02:58:18 54° WNW 02:58:18 54° WNW 03:03:01 10° N
Unknown 3.9 02:59:02 63° ESE 02:59:02 63° ESE 03:02:44 10° ENE
Unknown 3.9 03:00:31 64° ESE 03:00:31 64° ESE 03:04:17 10° ENE
Unknown 3.8 03:01:08 66° ESE 03:01:08 66° ESE 03:04:55 10° ENE
Cosmos 540 Rocket 4.3 03:01:31 36° NW 03:01:31 36° NW 03:05:53 10° N
Unknown 3.7 03:03:36 68° ESE 03:03:36 68° ESE 03:07:30 10° ENE
Lacrosse 5 3.3 02:59:43 13° NW 03:03:46 35° NNE 03:08:23 10° E
BREEZE-M DEB (TANK) 3.6 03:03:08 50° S 03:03:47 54° SSE 03:06:49 10° ENE
Cosmos 1782 3.2 03:06:43 52° NNW 03:06:43 52° NNW 03:09:52 10° N
USA 238 DEB 4.1 03:04:50 39° W 03:06:41 48° NW 03:13:26 10° NNE
Unknown 3.6 03:06:54 76° ESE 03:06:54 76° ESE 03:10:56 10° ENE
USA 238 4.1 03:04:55 39° W 03:06:48 49° NW 03:13:33 10° NNE
Cosmos 2344 3.6 03:04:08 42° WSW 03:06:52 69° NW 03:15:15 10° NE
Unknown 3.5 03:08:29 79° SE 03:08:29 79° SE 03:12:35 10° ENE
Cosmos 1943 Rocket 2.1 03:08:02 55° WSW 03:08:54 63° WNW 03:14:25 10° NNE
ADEOS 4.3 03:04:21 10° NNE 03:09:28 52° E 03:13:37 15° S
Unknown 3.5 03:10:05 81° SSE 03:10:05 81° SSE 03:14:15 10° ENE
CZ-2D R/B 4.1 03:06:12 10° N 03:09:14 42° NNW 03:09:14 42° NNW
Unknown 3.5 03:11:42 83° S 03:11:47 83° SE 03:15:56 10° ENE
CZ-2D R/B 3.9 03:08:51 10° NNW 03:11:29 16° NW 03:11:29 16° NW
ARIANE 5 R/B 3.0 03:07:37 10° N 03:12:21 40° WNW 03:12:21 40° WNW
BREEZE-M DEB (TANK) 4.3 03:00:01 10° W 03:13:28 68° N 03:17:20 10° E
SeaSat 1 3.5 03:09:13 10° NE 03:13:54 42° ESE 03:17:15 18° S
Lacrosse 5 rocket 1.7 03:15:00 51° S 03:15:00 51° S 03:18:32 10° SE
Unknown 3.4 03:14:55 81° SW 03:15:07 87° SSE 03:19:17 10° ENE
Unknown 3.4 03:16:34 79° WSW 03:16:49 90° E 03:20:57 10° ENE
H-2A R/B 3.8 03:13:22 10° NNE 03:16:54 34° E 03:19:57 13° SSE
Unknown 4.1 03:17:24 41° NNW 03:17:28 41° NNW 03:21:03 10° NE
Cosmos 1400 Rocket 2.8 03:17:04 51° SSE 03:17:54 72° E 03:21:47 10° NNE
Unknown 3.4 03:18:06 75° WSW 03:18:25 89° NNW 03:22:35 10° ENE
Cosmos 836 Rocket 4.5 03:18:17 50° WSW 03:19:22 62° WNW 03:24:33 10° NNE
Unknown 3.4 03:19:39 73° WSW 03:20:03 89° NNW 03:24:13 10° ENE
Cosmos 44 3.4 03:18:58 39° SSW 03:20:45 72° ESE 03:25:33 10° NE
ATLAS 5 CENTAUR R/B 4.2 03:19:18 10° NW 03:21:31 13° NNW 03:23:51 10° NNE
Unknown 3.4 03:21:32 69° WSW 03:22:01 85° NNW 03:26:11 10° ENE
Unknown 3.4 03:22:44 67° WSW 03:23:15 88° NNW 03:27:25 10° ENE
ATLAS 5 CENTAUR R/B 3.2 03:23:24 21° NNW 03:23:24 21° NNW 03:26:26 10° NNE
Unknown 3.5 03:25:53 62° WSW 03:26:32 84° NNW 03:30:42 10° ENE
Unknown 3.6 03:26:35 57° WNW 03:27:10 67° NNW 03:31:13 10° NE
Cosmos 2195 Rocket 4.4 03:22:29 16° S 03:27:44 87° W 03:34:03 10° N
Unknown 3.5 03:27:30 59° WSW 03:28:13 83° NNW 03:32:23 10° ENE
Unknown 3.6 03:29:16 56° W 03:30:04 76° NNW 03:34:13 10° ENE
Unknown 3.5 03:30:41 54° WSW 03:31:33 79° NNW 03:35:43 10° ENE
Cosmos 2263 4.2 03:29:57 36° SW 03:32:10 64° WNW 03:37:46 10° NNE
Unknown 3.6 03:32:17 52° WSW 03:33:12 77° NNW 03:37:22 10° ENE
Cosmos 1125 Rocket 4.2 03:28:46 10° NW 03:32:56 33° W 03:32:56 33° W
Unknown 3.6 03:33:02 50° W 03:33:56 70° NNW 03:38:02 10° ENE
Unknown 3.6 03:35:29 48° W 03:36:32 74° NNW 03:40:41 10° ENE
Unknown 3.6 03:37:05 46° W 03:38:13 72° NNW 03:42:22 10° ENE
SL-24 DEB 4.3 03:36:33 23° SSW 03:39:21 58° W 03:44:01 10° NNW
Meteor 1-5 Rocket 4.1 03:34:05 10° N 03:39:33 88° ENE 03:45:10 10° S
USA 215 4.1 03:33:34 10° ENE 03:39:48 45° SE 03:45:42 11° SSW
Unknown 3.6 03:38:41 44° W 03:39:52 71° NNW 03:44:02 10° ENE
Cosmos 1707 Rocket 4.0 03:39:26 38° WSW 03:40:09 42° WNW 03:44:21 10° N
Cosmos 1536 3.8 03:37:04 10° N 03:40:57 49° ENE 03:44:48 10° SSE
Unknown 3.7 03:40:14 42° W 03:41:30 69° NNW 03:45:39 10° ENE
Cosmos 1340 3.6 03:38:50 10° N 03:42:33 50° ENE 03:46:13 10° SSE
Cosmos 1428 Rocket 4.5 03:37:05 10° S 03:43:24 89° W 03:49:43 10° N
CZ-2C R/B 3.8 03:40:53 10° N 03:44:16 28° WNW 03:44:16 28° WNW
Cosmos 1346 Rocket 3.4 03:40:44 10° N 03:44:48 60° ENE 03:48:50 10° SSE
Unknown 3.7 03:43:28 38° W 03:44:52 66° NNW 03:49:01 10° NE
Cosmos 220 Rocket 4.5 03:44:20 35° W 03:45:20 41° WNW 03:49:25 10° N
Unknown 3.8 03:45:22 36° W 03:46:51 59° NNW 03:50:57 10° NE
MSX 4.2 03:41:07 10° NNE 03:46:53 67° ESE 03:52:34 10° S
Unknown 3.9 03:46:52 34° W 03:48:26 59° NNW 03:52:32 10° NE
Unknown 3.8 03:47:07 35° W 03:48:41 61° NNW 03:52:48 10° NE
PSLV R/B 3.5 03:44:28 10° N 03:48:51 74° WNW 03:52:08 17° SSW
Cosmos 1733 Rocket 3.1 03:45:07 10° NNW 03:49:30 58° W 03:53:52 10° S
IDEFIX/ARIANE 42P 2.5 03:45:33 10° NNE 03:50:50 79° WNW 03:56:07 10° SSW
Unknown 3.8 03:49:52 33° W 03:51:32 60° NNW 03:55:39 10° NE
PSLV R/B 4.0 03:47:49 10° S 03:51:53 54° W 03:55:57 10° NNW
Cosmos 1092 Rocket 4.2 03:50:12 20° SW 03:54:10 46° WNW 04:00:06 10° N
NOSS 3-2 (C) 4.1 03:51:16 23° W 03:54:31 41° NW 04:00:55 10° NNE
Unknown 3.9 03:53:03 30° W 03:54:52 58° NNW 03:58:59 10° NE
CZ-4B R/B 4.3 03:51:27 10° NNE 03:55:48 44° E 04:00:06 10° S
ATLAS 3B R/B 2.9 03:52:07 24° WSW 03:56:03 52° NW 04:02:29 10° NNE
Unknown 3.9 03:54:39 29° W 03:56:32 57° NNW 04:00:38 10° NE
Unknown 3.9 03:56:15 28° W 03:58:12 56° NNW 04:02:19 10° NE
Cosmos 2227 Rocket 4.4 03:54:49 10° N 03:59:33 26° NE 04:04:16 10° ESE
Unknown 3.9 03:57:51 27° W 03:59:53 55° NNW 04:03:58 10° NE
USA 81 4.0 03:54:40 10° SSW 03:59:54 67° W 04:05:12 10° N
Cosmos 773 Rocket 4.0 03:55:48 10° SSW 04:00:59 83° ESE 04:06:10 10° NNE
ADEOS II 3.6 03:59:40 10° NNW 04:03:00 17° WNW 04:04:19 16° WNW
Cosmos 1656 Rocket 3.8 04:02:08 17° SW 04:06:24 58° WNW 04:12:00 10° NNE
Unknown 4.1 04:04:13 23° W 04:06:32 51° NNW 04:10:36 10° NE
Cosmos 2369 Rocket 3.2 04:03:58 20° W 04:06:45 29° NW 04:11:40 10° N
Unknown 4.1 04:05:47 22° W 04:08:10 50° NNW 04:12:13 10° NE
Unknown 4.1 04:07:25 21° W 04:09:53 49° NNW 04:13:56 10° NE
Cosmos 2297 Rocket 4.1 04:05:32 10° N 04:10:34 32° NE 04:15:34 10° ESE
Iridium 4 Rocket 3.8 04:08:29 17° SW 04:11:19 32° W 04:15:10 10° NNW
Unknown 4.1 04:09:00 21° W 04:11:32 48° NNW 04:15:34 10° NE
Aureole 2 Rocket 1.6 04:11:03 20° SSW 04:12:43 72° WNW 04:15:22 10° NNE
Unknown 4.2 04:10:38 20° W 04:13:14 47° NNW 04:17:15 10° NE
USA 267 3.9 04:08:34 10° ESE 04:14:56 57° NNE 04:21:19 10° NW
Cosmos 2266 Rocket 4.5 04:09:14 10° S 04:15:13 63° E 04:21:11 10° NNE
Unknown 4.2 04:13:49 18° W 04:16:35 46° NNW 04:20:35 10° NE
Cosmos 1500 3.4 04:13:38 10° NNW 04:17:12 43° W 04:20:46 10° SSW
OPS 6432 4.3 04:14:57 14° SW 04:18:06 88° NW 04:21:12 10° NE
Starlink (trailer) 4.3 04:15:21 18° W 04:18:10 45° NNW 04:22:10 10° NE
Atlas Centaur 2 4.3 04:15:22 12° SW 04:19:20 19° S 04:24:24 10° SSE
Unknown 4.3 04:17:02 17° W 04:19:56 44° NNW 04:23:56 10° NE
Unknown 4.3 04:18:35 16° W 04:21:34 44° NNW 04:25:33 10° NE
Cosmos 1782 Rocket 3.9 04:17:55 10° N 04:22:17 72° E 04:26:40 10° SSE
CZ-4B R/B 3.7 04:18:51 10° NNE 04:22:34 79° ESE 04:26:12 10° S
Meteor 1-27 Rocket 3.9 04:17:08 10° SSW 04:22:55 60° WNW 04:28:40 10° N
ATLAS CENTAUR R/B 4.0 04:20:54 10° NNW 04:24:22 21° NE 04:27:39 10° E
SL-4 R/B 2.2 04:22:12 15° W 04:24:43 38° SW 04:28:09 10° SSE
Unknown 4.4 04:24:58 14° W 04:28:14 41° NNW 04:32:11 10° NE
Unknown 4.4 04:26:38 14° W 04:29:58 41° NNW 04:33:55 10° NE
Unknown 4.4 04:27:10 13° W 04:30:32 40° NNW 04:34:29 10° NE
Unknown 4.1 04:28:11 10° NW 04:30:50 34° NNE 04:33:31 10° E
Unknown 4.5 04:29:47 12° W 04:33:17 40° NNW 04:37:12 10° NE
Cosmos 1538 Rocket 4.0 04:28:24 10° SSW 04:33:33 67° WNW 04:38:43 10° NNE
Sich 1 Rocket 3.8 04:29:13 10° N 04:33:40 77° E 04:38:09 10° SSE
Cosmos 1703 Rocket 3.5 04:31:19 10° SSW 04:35:44 69° W 04:40:09 10° N
Cosmos 1315 Rocket 3.4 04:32:21 10° SW 04:36:13 37° WNW 04:40:06 10° N
Meteor 1-11 Rocket 4.2 04:31:10 10° NNW 04:36:13 36° W 04:41:12 10° SSW
Cosmos 44 Rocket 3.4 04:32:30 10° SSW 04:37:33 86° ESE 04:42:30 10° NE
Cosmos 1553 Rocket 4.3 04:31:39 10° NNW 04:37:34 45° W 04:43:21 10° SSW
CENTAUR R/B 3.5 04:32:41 11° W 04:38:08 36° NNW 04:44:48 10° NNE
CZ-2C R/B 2.4 04:33:55 10° N 04:38:46 65° WNW 04:43:44 10° SSW
Cosmos 2242 Rocket 4.2 04:35:05 10° SW 04:39:15 36° WNW 04:43:25 10° N
EP 1 4.3 04:36:47 10° SW 04:39:37 63° NW 04:42:11 10° NNE
Cosmos 1812 3.7 04:36:58 10° SW 04:40:16 27° WNW 04:43:36 10° NNW
Cosmos 1743 3.3 04:38:14 10° N 04:42:08 63° E 04:45:59 10° SSE
Cosmos 2315 Rocket 4.3 04:37:05 10° N 04:43:19 77° E 04:49:32 10° SSE
Cosmos 2292 Rocket 4.3 04:40:54 10° S 04:46:10 63° E 04:50:09 10° NNE
Lacrosse 5 1.9 04:42:02 10° NW 04:47:05 70° SW 04:52:06 10° SE
SeaSat 1 3.3 04:46:55 10° NNE 04:51:18 33° NW 04:55:40 10° WSW
H-2A R/B 3.7 04:49:22 10° NNW 04:52:12 20° WNW 04:55:01 10° WSW
Cosmos 1943 Rocket 4.1 04:51:02 10° WNW 04:53:50 14° NW 04:56:40 10° N
